TimeCDT,TemperatureF,Dew PointF,Humidity,Sea Level PressureIn,VisibilityMPH,Wind Direction,Wind SpeedMPH,Gust SpeedMPH,PrecipitationIn,Events,Conditions,WindDirDegrees,DateUTC
12:53 AM,80.1,75.9,87,30.05,10.0,Calm,Calm,-,N/A,,Clear,0,2013-07-26 05:53:00
1:53 AM,80.1,75.9,87,30.05,10.0,Calm,Calm,-,N/A,,Clear,0,2013-07-26 06:53:00
2:53 AM,78.1,75.0,90,30.05,10.0,Calm,Calm,-,N/A,,Clear,0,2013-07-26 07:53:00
3:53 AM,77.0,73.9,90,30.04,10.0,Calm,Calm,-,N/A,,Clear,0,2013-07-26 08:53:00
4:53 AM,77.0,73.9,90,30.05,10.0,Calm,Calm,-,N/A,,Clear,0,2013-07-26 09:53:00
5:53 AM,75.9,73.9,94,30.06,10.0,Calm,Calm,-,N/A,,Clear,0,2013-07-26 10:53:00
6:53 AM,77.0,73.9,90,30.06,10.0,Calm,Calm,-,N/A,,Clear,0,2013-07-26 11:53:00
7:53 AM,80.1,75.9,87,30.08,10.0,Calm,Calm,-,N/A,,Clear,0,2013-07-26 12:53:00
8:53 AM,84.9,75.9,74,30.09,10.0,Calm,Calm,-,N/A,,Clear,0,2013-07-26 13:53:00
9:21 AM,84.2,75.2,74,30.06,10.0,West,4.6,-,N/A,,Mostly Cloudy,280,2013-07-26 14:21:00
9:50 AM,86.0,75.2,70,30.05,10.0,West,4.6,-,N/A,,Mostly Cloudy,270,2013-07-26 14:50:00
9:53 AM,87.1,75.0,67,30.07,10.0,WNW,4.6,-,N/A,,Mostly Cloudy,300,2013-07-26 14:53:00
10:53 AM,87.1,73.9,65,30.07,10.0,WSW,6.9,-,N/A,,Mostly Cloudy,250,2013-07-26 15:53:00
11:53 AM,90.0,70.0,52,30.07,10.0,West,9.2,-,N/A,,Partly Cloudy,260,2013-07-26 16:53:00
12:53 PM,93.0,70.0,47,30.06,10.0,WSW,9.2,-,N/A,,Partly Cloudy,250,2013-07-26 17:53:00
1:53 PM,91.9,71.1,50,30.04,10.0,SW,8.1,-,N/A,,Partly Cloudy,230,2013-07-26 18:53:00
2:53 PM,91.9,75.0,58,30.02,10.0,SSW,11.5,18.4,N/A,,Partly Cloudy,210,2013-07-26 19:53:00
3:53 PM,91.0,73.9,57,30.01,10.0,SSW,9.2,17.3,N/A,,Clear,200,2013-07-26 20:53:00
4:53 PM,90.0,73.0,57,29.99,10.0,SSW,10.4,18.4,N/A,,Clear,200,2013-07-26 21:53:00
5:53 PM,89.1,73.9,61,29.99,10.0,South,9.2,17.3,N/A,,Clear,190,2013-07-26 22:53:00
6:53 PM,87.1,73.9,65,29.97,10.0,SSW,11.5,17.3,N/A,,Clear,210,2013-07-26 23:53:00
7:53 PM,84.9,73.9,69,29.97,10.0,SSW,8.1,-,N/A,,Clear,200,2013-07-27 00:53:00
8:53 PM,82.9,75.0,77,29.97,10.0,SSW,4.6,-,N/A,,Clear,200,2013-07-27 01:53:00
9:53 PM,82.9,73.9,74,29.98,10.0,SW,8.1,-,N/A,,Partly Cloudy,220,2013-07-27 02:53:00
10:53 PM,82.9,75.0,77,29.98,10.0,SSW,10.4,-,N/A,,Clear,210,2013-07-27 03:53:00
11:53 PM,82.9,75.0,77,29.98,10.0,SW,5.8,-,N/A,,Scattered Clouds,220,2013-07-27 04:53:00